PulseSat

PulseSat

MOLNIYA 1-71

Last updated on April 20, 2019, 3:02 a.m. UTC

1 18946U 88017A   19109.47568365  .00000192  00000-0  44302-1 0  9992
2 18946  63.6154 252.2147 6893555 264.4620  43.5492  2.00556755227927
UTC
Height (km)
Latitude
Longitude
Inclination
Orbital Period

Next 30 passes for location: Hong Kong

Rise time Rise Azimuth (degrees) Set time Set Azimuth (degrees) Duration Max altitude (degrees)

No matching passes for this satellites

PulseSat

PulseSat is the new satellites software and hardware trackering solution by Pulsely.
Satellite Two Line Element Set source: US Air Force Space Command

Download PulseSat for iOS
© 2017 Pulsely Limited